Tracking 29040 objects as of 16-Jun-2024
HD Live streaming from Space Station
objects crossing your sky now

ONEWEB-0139

Track ONEWEB-0139 now!
10-day predictions
ONEWEB-0139 is classified as:


NORAD ID: 47285
Int'l Code: 2020-100AD
Perigee: 1,215.1 km
Apogee: 1,218.3 km
Inclination: 87.9 °
Period: 109.6 minutes
Semi major axis: 7587 km
RCS: Unknown
Launch date: December 18, 2020
Source: United Kingdom (UK)
Launch site: VOSTOCHNY COSMODROME (VOSTO)
Your satellite tracking list
Your tracking list is empty




NASA's NSSDC Master Catalog

Two Line Element Set (TLE):
1 47285U 20100AD  24168.58334491  .00137315  00000-0  37016+0 0  9993
2 47285  87.8932 136.1219 0002105  83.2871 218.1894 13.13515669  5160
Source of the keplerian elements: AFSPC